CW8998 Weather Reports


Display with metric or nautical units.
time (UTC)temp
F
wind
direction
speed
MPH
gust
MPH
rain 1hr
in
rain 24hr
in
rain mn
in
humidity
%
barometer
mb
20260507093528 31 175 0.0 2.0 0.00 0.00 0.00 76 1012.7
20260507093040 30 175 0.0 2.0 0.00 0.00 0.00 77 1012.6
20260507092531 30 0 0.0 2.0 0.00 0.00 0.00 77 1012.5
20260507092028 30 0 0.0 2.0 0.00 0.00 0.00 77 1012.5
20260507091604 30 0 0.0 2.0 0.00 0.00 0.00 77 1012.5
20260507091030 30 175 0.0 3.0 0.00 0.00 0.00 77 1012.5
20260507090529 30 175 0.0 3.0 0.00 0.00 0.00 77 1012.5
20260507090046 30 0 0.0 3.0 0.00 0.00 0.00 76 1012.5
20260507085529 30 170 1.0 3.0 0.00 0.00 0.00 76 1012.5
20260507085029 31 202 0.0 2.0 0.00 0.00 0.00 76 1012.5
20260507084543 30 205 0.0 2.0 0.00 0.00 0.00 78 1012.5
20260507084028 30 0 0.0 2.0 0.00 0.00 0.00 79 1012.5
20260507083529 30 0 0.0 2.0 0.00 0.00 0.00 79 1012.5
20260507083041 30 173 0.0 2.0 0.00 0.00 0.00 79 1012.4
20260507082528 30 0 0.0 2.0 0.00 0.00 0.00 79 1012.5
20260507082028 30 0 0.0 1.0 0.00 0.00 0.00 79 1012.6
20260507081543 31 173 0.0 2.0 0.00 0.00 0.00 78 1012.6
20260507081028 31 173 0.0 2.0 0.00 0.00 0.00 78 1012.6
20260507080528 31 173 0.0 2.0 0.00 0.00 0.00 78 1012.6
20260507080040 31 0 0.0 1.0 0.00 0.00 0.00 78 1012.6
20260507075528 31 0 0.0 2.0 0.00 0.00 0.00 77 1012.6
20260507075029 31 173 0.0 2.0 0.00 0.00 0.00 76 1012.7
20260507074543 31 173 0.0 2.0 0.00 0.00 0.00 74 1012.6
20260507074028 32 0 0.0 2.0 0.00 0.00 0.00 74 1012.7
20260507073529 32 0 1.0 2.0 0.00 0.00 0.00 74 1012.7
20260507073043 32 184 0.0 2.0 0.00 0.00 0.00 74 1012.8
20260507072529 32 184 0.0 2.0 0.00 0.00 0.00 73 1012.8
20260507072031 32 184 0.0 3.0 0.00 0.00 0.00 72 1012.9
20260507071543 33 184 1.0 3.0 0.00 0.00 0.00 71 1012.9
20260507071029 33 0 1.0 3.0 0.00 0.00 0.00 70 1012.8
20260507070529 33 0 0.0 2.0 0.00 0.00 0.00 69 1012.8
20260507070056 34 175 1.0 2.0 0.00 0.00 0.00 69 1012.8
20260507065528 34 195 1.0 2.0 0.00 0.00 0.00 69 1012.8
20260507065028 34 202 1.0 2.0 0.00 0.00 0.00 70 1012.9
20260507064541 34 196 0.0 2.0 0.00 0.00 0.00 72 1012.8
20260507064030 34 0 0.0 2.0 0.00 0.00 0.00 73 1012.8
20260507063528 33 0 0.0 2.0 0.00 0.00 0.00 73 1012.8
20260507063040 33 0 0.0 1.0 0.00 0.00 0.00 73 1012.8
20260507062529 33 0 0.0 2.0 0.00 0.00 0.00 71 1012.9
20260507062031 34 0 0.0 2.0 0.00 0.00 0.00 71 1013.1
20260507061538 34 174 0.0 2.0 0.00 0.00 0.00 70 1013.2
20260507061026 34 0 0.0 3.0 0.00 0.00 0.00 69 1013.2
20260507060527 34 173 0.0 3.0 0.00 0.00 0.00 68 1013.3
20260507060044 34 179 0.0 3.0 0.00 0.00 0.00 68 1013.4
20260507055527 34 191 1.0 3.0 0.00 0.00 0.00 67 1013.5
20260507055028 35 205 1.0 3.0 0.00 0.00 0.00 66 1013.5
20260507054547 35 184 0.0 3.0 0.00 0.00 0.00 66 1013.5
20260507054029 35 187 1.0 2.0 0.00 0.00 0.00 65 1013.5
20260507053530 35 0 0.0 2.0 0.00 0.00 0.00 65 1013.6
20260507053048 36 190 0.0 2.0 0.00 0.00 0.00 64 1013.6
20260507052528 36 0 0.0 2.0 0.00 0.00 0.00 64 1013.6
20260507052029 36 244 0.0 2.0 0.00 0.00 0.00 64 1013.7
20260507051542 37 212 0.0 3.0 0.00 0.00 0.00 64 1013.6
20260507051028 37 193 1.0 3.0 0.00 0.00 0.00 64 1013.7
20260507050527 37 0 0.0 2.0 0.00 0.00 0.00 62 1013.8
20260507050043 38 258 0.0 2.0 0.00 0.00 0.00 61 1013.8
20260507045529 38 0 0.0 2.0 0.00 0.00 0.00 61 1013.8
20260507045029 38 0 0.0 2.0 0.00 0.00 0.00 61 1013.8
20260507044537 38 234 0.0 1.0 0.00 0.00 0.00 60 1013.9
20260507044029 39 0 0.0 3.0 0.00 0.00 0.00 58 1014.0
20260507043529 39 250 0.0 3.0 0.00 0.00 0.00 57 1014.0
20260507043042 40 275 1.0 3.0 0.00 0.00 0.00 56 1014.0
20260507042530 40 290 2.0 3.0 0.00 0.00 0.00 56 1014.0
20260507042029 40 286 0.0 2.0 0.00 0.00 0.00 56 1014.0
20260507041542 40 0 0.0 3.0 0.00 0.00 0.00 56 1014.1
20260507041028 40 265 0.0 3.0 0.00 0.00 0.00 56 1014.2
20260507040530 40 263 1.0 3.0 0.00 0.00 0.00 56 1014.2
20260507040042 40 0 0.0 3.0 0.00 0.00 0.00 56 1014.2
20260507035529 40 293 1.0 3.0 0.00 0.00 0.00 55 1014.3
20260507035026 40 0 0.0 4.0 0.00 0.00 0.00 55 1014.2
20260507034553 40 292 1.0 4.0 0.00 0.00 0.00 55 1014.3
20260507034026 40 292 1.0 4.0 0.00 0.00 0.00 54 1014.3
20260507033527 40 272 1.0 4.0 0.00 0.00 0.00 54 1014.3
20260507033047 41 274 1.0 6.0 0.00 0.00 0.00 54 1014.4
20260507032529 41 282 2.0 6.0 0.00 0.00 0.00 54 1014.4
20260507032028 41 301 1.0 5.0 0.00 0.00 0.00 53 1014.3
20260507031540 40 297 2.0 5.0 0.00 0.00 0.00 54 1014.3
20260507031028 41 280 2.0 6.0 0.00 0.00 0.00 54 1014.4
20260507030529 41 0 1.0 6.0 0.00 0.00 0.00 53 1014.4
20260507030042 41 288 1.0 4.0 0.00 0.00 0.00 53 1014.5
20260507025526 41 277 2.0 4.0 0.00 0.00 0.00 52 1014.4
20260507025026 41 273 2.0 4.0 0.00 0.00 0.00 53 1014.4
20260507024551 41 0 1.0 7.0 0.00 0.00 0.00 52 1014.2
20260507024027 41 288 2.0 7.0 0.00 0.00 0.00 52 1014.3
20260507023527 41 267 2.0 7.0 0.00 0.00 0.00 52 1014.4
20260507023042 41 284 2.0 6.0 0.00 0.00 0.00 51 1014.4
20260507022527 41 269 1.0 5.0 0.00 0.00 0.00 50 1014.3
20260507022029 42 313 1.0 4.0 0.00 0.00 0.00 50 1014.2
20260507021548 42 346 1.0 4.0 0.00 0.00 0.00 50 1014.2
20260507021028 42 337 1.0 7.0 0.00 0.00 0.00 50 1014.2
20260507020529 42 267 2.0 7.0 0.00 0.00 0.00 50 1014.1
20260507020048 42 282 4.0 7.0 0.00 0.00 0.00 50 1014.1
20260507015528 42 283 1.0 6.0 0.00 0.00 0.00 50 1014.2
20260507015028 42 300 1.0 4.0 0.00 0.00 0.00 49 1014.1
20260507014543 42 306 1.0 4.0 0.00 0.00 0.00 49 1014.1
20260507014028 42 0 2.0 7.0 0.00 0.00 0.00 49 1014.2
20260507013529 42 289 1.0 7.0 0.00 0.00 0.00 48 1014.1
20260507013036 42 270 2.0 7.0 0.00 0.00 0.00 48 1014.2
20260507012528 42 311 2.0 9.0 0.00 0.00 0.00 48 1014.2
20260507012028 42 306 3.0 10.0 0.00 0.00 0.00 48 1014.2
20260507011542 42 261 4.0 10.0 0.00 0.00 0.00 48 1014.2
20260507011028 42 312 4.0 10.0 0.00 0.00 0.00 48 1014.3
20260507010529 42 256 4.0 9.0 0.00 0.00 0.00 48 1014.3
20260507010055 42 148 2.0 12.0 0.00 0.00 0.00 47 1014.4
20260507005528 42 303 5.0 13.0 0.00 0.00 0.00 47 1014.3
20260507005028 42 294 6.0 13.0 0.00 0.00 0.00 46 1014.3
20260507004540 43 236 7.0 13.0 0.00 0.00 0.00 46 1014.4
20260507004028 43 325 5.0 13.0 0.00 0.00 0.00 46 1014.4
20260507003529 43 322 5.0 11.0 0.00 0.00 0.00 46 1014.5
20260507003041 43 300 4.0 9.0 0.00 0.00 0.00 46 1014.4
20260507002528 43 277 2.0 9.0 0.00 0.00 0.00 46 1014.4
20260507002028 43 319 3.0 10.0 0.00 0.00 0.00 47 1014.5
20260507001559 43 288 4.0 10.0 0.00 0.00 0.00 46 1014.5
20260507001029 43 296 4.0 13.0 0.00 0.00 0.00 46 1014.5
20260507000528 43 290 7.0 13.0 0.00 0.00 0.00 45 1014.5
20260507000043 43 273 4.0 11.0 0.00 0.00 0.00 46 1014.7
20260506235530 43 65 1.0 11.0 0.00 0.00 0.00 47 1014.5
20260506235029 43 360 2.0 12.0 0.00 0.00 0.00 46 1014.6
20260506234542 43 297 6.0 12.0 0.00 0.00 0.00 45 1014.7
20260506234029 43 333 3.0 9.0 0.00 0.00 0.00 45 1014.6
20260506233529 43 348 3.0 9.0 0.00 0.00 0.00 46 1014.8
20260506233048 43 284 4.0 10.0 0.00 0.00 0.00 46 1014.8
20260506232528 43 240 4.0 12.0 0.00 0.00 0.00 46 1014.9
20260506232028 43 303 5.0 14.0 0.00 0.00 0.00 47 1015.0
20260506231538 43 275 6.0 14.0 0.00 0.00 0.00 47 1015.0
20260506231027 43 257 7.0 14.0 0.00 0.00 0.00 47 1015.0
20260506230528 43 281 7.0 13.0 0.00 0.00 0.00 47 1015.2
20260506230044 43 296 4.0 11.0 0.00 0.00 0.00 47 1015.0
20260506225528 43 292 4.0 11.0 0.00 0.00 0.00 47 1015.1
20260506225028 43 284 5.0 11.0 0.00 0.00 0.00 47 1015.1
20260506224542 43 262 6.0 15.0 0.00 0.00 0.00 47 1015.1
20260506224028 43 273 9.0 15.0 0.00 0.00 0.00 47 1015.1
20260506223528 43 310 6.0 14.0 0.00 0.00 0.00 46 1015.1
20260506223045 44 288 6.0 13.0 0.00 0.00 0.00 46 1015.1
20260506222529 43 5 6.0 11.0 0.00 0.00 0.00 46 1015.1
20260506222030 44 314 5.0 14.0 0.00 0.00 0.00 46 1015.1
20260506221545 44 315 4.0 17.0 0.00 0.00 0.00 46 1015.0
20260506221028 44 282 8.0 17.0 0.00 0.00 0.00 45 1015.0
20260506220528 44 298 5.0 14.0 0.00 0.00 0.00 45 1015.0
20260506220048 44 271 6.0 14.0 0.00 0.00 0.00 45 1015.0
20260506215528 44 296 2.0 13.0 0.00 0.00 0.00 46 1015.0
20260506215028 44 307 3.0 13.0 0.00 0.00 0.00 45 1015.0
20260506214543 44 307 6.0 16.0 0.00 0.00 0.00 45 1015.1
20260506214031 44 283 9.0 16.0 0.00 0.00 0.00 45 1015.2
20260506213528 44 292 5.0 11.0 0.00 0.00 0.00 46 1015.2
20260506213043 44 335 4.0 14.0 0.00 0.00 0.00 46 1015.2
20260506212532 44 283 4.0 14.0 0.00 0.00 0.00 45 1015.2
20260506212029 44 228 6.0 14.0 0.00 0.00 0.00 44 1015.3
20260506211548 44 264 2.0 14.0 0.00 0.00 0.00 45 1015.2
20260506211028 44 288 7.0 14.0 0.00 0.00 0.00 45 1015.3
20260506210529 44 304 3.0 15.0 0.00 0.00 0.00 45 1015.3
20260506210042 44 281 7.0 15.0 0.00 0.00 0.00 44 1015.3
20260506205528 44 322 9.0 15.0 0.00 0.00 0.00 44 1015.4
20260506205028 44 275 5.0 14.0 0.00 0.00 0.00 45 1015.4
20260506204538 44 268 7.0 14.0 0.00 0.00 0.00 44 1015.4
20260506204028 44 257 3.0 12.0 0.00 0.00 0.00 45 1015.5
20260506203530 43 313 7.0 13.0 0.00 0.00 0.00 45 1015.5
20260506203036 44 312 5.0 13.0 0.00 0.00 0.00 46 1015.5
20260506202530 44 238 4.0 12.0 0.00 0.00 0.00 46 1015.5
20260506202028 44 336 3.0 12.0 0.00 0.00 0.00 45 1015.7
20260506201543 44 292 4.0 12.0 0.00 0.00 0.00 46 1015.7
20260506201029 43 347 5.0 12.0 0.00 0.00 0.00 46 1015.6
20260506200529 44 350 3.0 12.0 0.00 0.00 0.00 46 1015.7
20260506200041 44 312 4.0 13.0 0.00 0.00 0.00 45 1015.6
20260506195528 44 340 3.0 13.0 0.00 0.00 0.00 46 1015.7
20260506195028 44 298 6.0 13.0 0.00 0.00 0.00 45 1015.7
20260506194540 43 306 5.0 13.0 0.00 0.00 0.00 48 1015.5
20260506194026 43 292 7.0 14.0 0.00 0.00 0.00 47 1015.7
20260506193526 43 313 5.0 14.0 0.00 0.00 0.00 46 1015.7
20260506193038 44 264 5.0 10.0 0.00 0.00 0.00 47 1015.7
20260506192529 43 334 3.0 10.0 0.00 0.00 0.00 47 1015.6
20260506192029 43 269 5.0 15.0 0.00 0.00 0.00 48 1015.6
20260506191545 42 267 5.0 15.0 0.00 0.00 0.00 47 1015.6
20260506191029 43 333 7.0 14.0 0.00 0.00 0.00 47 1015.6
20260506190528 42 298 3.0 10.0 0.00 0.00 0.00 48 1015.5
20260506190043 42 246 5.0 14.0 0.00 0.00 0.00 49 1015.5
20260506185528 42 318 6.0 14.0 0.00 0.00 0.00 48 1015.6
20260506185026 42 302 1.0 15.0 0.00 0.00 0.00 49 1015.6
20260506184544 42 300 5.0 15.0 0.00 0.00 0.00 48 1015.7
20260506184029 42 300 5.0 15.0 0.00 0.00 0.00 47 1015.6
20260506183529 42 309 5.0 12.0 0.00 0.00 0.00 48 1015.7
20260506183041 42 281 3.0 12.0 0.00 0.00 0.00 49 1015.8
20260506182528 42 286 4.0 12.0 0.00 0.00 0.00 50 1015.7
20260506182029 41 297 3.0 12.0 0.00 0.00 0.00 49 1015.8
20260506181540 41 248 7.0 12.0 0.00 0.00 0.00 49 1016.0
20260506181025 41 338 4.0 12.0 0.00 0.00 0.00 50 1016.0
20260506180526 41 273 5.0 12.0 0.00 0.00 0.00 50 1016.0
20260506180038 40 41 2.0 9.0 0.00 0.00 0.00 51 1016.1
20260506175525 40 338 4.0 10.0 0.00 0.00 0.00 50 1016.2
20260506175028 40 279 3.0 11.0 0.00 0.00 0.00 51 1016.3
20260506174546 40 286 6.0 11.0 0.00 0.00 0.00 52 1016.4
20260506174029 40 294 5.0 11.0 0.00 0.00 0.00 51 1016.3
20260506173529 40 5 4.0 13.0 0.00 0.00 0.00 52 1016.3
20260506173054 39 26 5.0 13.0 0.00 0.00 0.00 52 1016.4
20260506172528 40 321 4.0 13.0 0.00 0.00 0.00 51 1016.3
20260506172029 39 342 7.0 13.0 0.00 0.00 0.00 52 1016.4
20260506171542 39 257 7.0 13.0 0.00 0.00 0.00 52 1016.5
20260506171028 39 300 4.0 15.0 0.00 0.00 0.00 53 1016.5
20260506170526 39 302 5.0 15.0 0.00 0.00 0.00 53 1016.5
20260506170038 39 290 5.0 13.0 0.00 0.00 0.00 53 1016.5
20260506165528 39 321 5.0 13.0 0.00 0.00 0.00 53 1016.6
20260506165028 38 308 7.0 13.0 0.00 0.00 0.00 53 1016.6
20260506164542 38 290 5.0 13.0 0.00 0.00 0.00 54 1016.5
20260506164027 38 238 6.0 13.0 0.00 0.00 0.00 54 1016.6
20260506163530 38 340 3.0 13.0 0.00 0.00 0.00 55 1016.6
20260506163048 38 289 6.0 15.0 0.00 0.00 0.00 56 1016.6
20260506162527 38 252 6.0 15.0 0.00 0.00 0.00 55 1016.7
20260506162028 38 292 5.0 12.0 0.00 0.00 0.00 55 1016.6
20260506161541 38 355 5.0 13.0 0.00 0.00 0.00 56 1016.7
20260506161029 38 264 4.0 13.0 0.00 0.00 0.00 55 1016.6
20260506160527 38 334 6.0 12.0 0.00 0.00 0.00 55 1016.6
20260506160042 38 305 4.0 11.0 0.00 0.00 0.00 55 1016.7
20260506155529 38 255 4.0 12.0 0.00 0.00 0.00 56 1016.7
20260506155028 38 272 6.0 12.0 0.00 0.00 0.00 56 1016.7
20260506154541 38 291 5.0 11.0 0.00 0.00 0.00 55 1016.7
20260506154028 38 289 4.0 11.0 0.00 0.00 0.00 55 1016.5
20260506153528 38 322 4.0 12.0 0.00 0.00 0.00 55 1016.5
20260506153045 38 355 5.0 12.0 0.00 0.00 0.00 54 1016.5
20260506152528 38 351 5.0 14.0 0.00 0.00 0.00 55 1016.5
20260506152028 38 0 6.0 14.0 0.00 0.00 0.00 54 1016.5
20260506151542 38 317 5.0 10.0 0.00 0.00 0.00 54 1016.5
20260506151027 38 295 4.0 12.0 0.00 0.00 0.00 55 1016.5
20260506150528 37 323 5.0 14.0 0.00 0.00 0.00 55 1016.5
20260506150048 37 309 6.0 14.0 0.00 0.00 0.00 54 1016.6
20260506145531 38 306 2.0 12.0 0.00 0.00 0.00 55 1016.6
20260506145029 37 325 5.0 12.0 0.00 0.00 0.00 55 1016.5
20260506144558 38 298 4.0 10.0 0.00 0.00 0.00 55 1016.5
20260506144028 37 236 3.0 10.0 0.00 0.00 0.00 56 1016.5
20260506143528 37 277 3.0 10.0 0.00 0.00 0.00 57 1016.5
20260506143049 37 176 3.0 10.0 0.00 0.00 0.00 58 1016.4
20260506142527 37 312 3.0 8.0 0.00 0.00 0.00 59 1016.4
20260506142027 37 321 2.0 10.0 0.00 0.00 0.00 59 1016.5
20260506141542 37 22 3.0 10.0 0.00 0.00 0.00 59 1016.4
20260506141028 37 262 3.0 9.0 0.00 0.00 0.00 60 1016.3
20260506140529 37 16 4.0 9.0 0.00 0.00 0.00 61 1016.4
20260506140057 36 360 3.0 13.0 0.00 0.00 0.00 61 1016.3
20260506135527 36 313 4.0 13.0 0.00 0.00 0.00 61 1016.2
20260506135027 36 282 3.0 12.0 0.00 0.00 0.00 61 1016.2
20260506134545 36 303 3.0 10.0 0.00 0.00 0.00 62 1016.2
20260506134030 36 329 5.0 10.0 0.00 0.00 0.00 62 1016.2
20260506133527 36 12 3.0 9.0 0.00 0.00 0.00 62 1016.1
20260506133040 36 350 3.0 8.0 0.00 0.00 0.00 63 1016.1
20260506132528 36 301 3.0 8.0 0.00 0.00 0.00 63 1016.1
20260506132029 36 345 3.0 7.0 0.00 0.00 0.00 63 1016.1
20260506131546 35 303 1.0 10.0 0.00 0.00 0.00 63 1016.1
20260506131028 35 281 3.0 10.0 0.00 0.00 0.00 63 1016.0
20260506130528 35 309 2.0 8.0 0.00 0.00 0.00 64 1016.0
20260506130112 35 316 2.0 8.0 0.00 0.00 0.00 64 1015.8
20260506125527 35 294 3.0 8.0 0.00 0.00 0.00 64 1015.9
20260506125027 35 281 1.0 8.0 0.00 0.00 0.00 65 1015.9
20260506124541 35 302 2.0 8.0 0.00 0.00 0.00 65 1015.8
20260506124028 34 309 2.0 6.0 0.00 0.00 0.00 66 1015.7
20260506123528 34 0 2.0 6.0 0.00 0.00 0.00 66 1015.7
20260506123046 34 331 1.0 5.0 0.00 0.00 0.00 66 1015.7
20260506122528 34 294 2.0 5.0 0.00 0.00 0.00 66 1015.6
20260506122028 34 28 1.0 4.0 0.00 0.00 0.00 67 1015.5
20260506121545 34 310 1.0 6.0 0.00 0.00 0.00 68 1015.5
20260506121028 34 0 2.0 6.0 0.00 0.00 0.00 68 1015.4
20260506120528 33 288 1.0 4.0 0.00 0.00 0.00 68 1015.4
20260506120040 33 355 1.0 5.0 0.00 0.00 0.00 68 1015.4
20260506115530 33 294 2.0 6.0 0.00 0.00 0.00 68 1015.3
20260506115027 33 301 2.0 6.0 0.00 0.00 0.00 69 1015.3
20260506114543 33 300 2.0 7.0 0.00 0.00 0.00 69 1015.2
20260506114029 33 294 3.0 7.0 0.00 0.00 0.00 69 1015.2
20260506113529 33 317 2.0 6.0 0.00 0.00 0.00 69 1015.1
20260506113047 33 280 2.0 6.0 0.00 0.00 0.00 69 1015.1
20260506112527 32 311 1.0 6.0 0.00 0.00 0.00 69 1015.1
20260506112028 32 298 1.0 7.0 0.00 0.00 0.00 69 1015.0
20260506111538 32 292 3.0 7.0 0.00 0.00 0.00 69 1015.0
20260506111028 32 326 1.0 4.0 0.00 0.00 0.00 70 1015.0
20260506110528 32 292 0.0 4.0 0.00 0.00 0.00 70 1015.0
20260506110042 32 300 2.0 4.0 0.00 0.00 0.00 70 1015.0
20260506105529 32 300 2.0 5.0 0.00 0.00 0.00 71 1015.1
20260506105028 32 319 2.0 6.0 0.00 0.00 0.00 71 1015.0
20260506104553 31 277 1.0 6.0 0.00 0.00 0.00 72 1015.0
20260506104028 31 290 1.0 6.0 0.00 0.00 0.00 72 1014.9
20260506103528 31 308 2.0 6.0 0.00 0.00 0.00 72 1014.9
20260506103043 31 293 1.0 4.0 0.00 0.00 0.00 72 1014.8
20260506102527 31 273 1.0 4.0 0.00 0.00 0.00 72 1014.7
20260506102028 31 287 1.0 4.0 0.00 0.00 0.00 72 1014.6
20260506101541 31 287 2.0 4.0 0.00 0.00 0.00 73 1014.6
20260506101027 31 296 2.0 4.0 0.00 0.00 0.00 72 1014.6
20260506100527 30 278 1.0 3.0 0.00 0.00 0.00 73 1014.5
20260506100050 30 0 1.0 3.0 0.00 0.00 0.00 73 1014.6
20260506095529 30 282 1.0 3.0 0.00 0.00 0.00 73 1014.6
20260506095027 30 300 1.0 3.0 0.00 0.00 0.00 72 1014.5
20260506094536 31 281 0.0 3.0 0.00 0.00 0.00 72 1014.6
20260506094028 31 281 1.0 3.0 0.00 0.00 0.00 72 1014.6